Lafayette, LA

5:21 AM CDT on May 27, 2018 (GMT -0500)
Lafayette Regional

Weather History for KLFT - August, 2013

Change the Weather History Date:

Saturday, August 24, 2013

  Actual Average Record
Temperature  
Mean Temperature 81 °F 83 °F  
Max Temperature 88 °F 93 °F 103 °F (1924)
Min Temperature 73 °F 74 °F 60 °F (1897)
Cooling Degree Days 16 18  
Month to date cooling degree days 448 454  
Year to date cooling degree days 1988 2138  
Since 1 June cooling degree days 1524 1524  
Growing Degree Days 30 (Base 50)    
Moisture  
Dew Point 73 °F    
Average Humidity 78    
Maximum Humidity 94    
Minimum Humidity 61    
Precipitation  
Precipitation 0.02 in 0.16 in 2.56 in (1970)
Month to date precipitation 2.38 3.61  
Year to date precipitation 41.50 39.61  
Sea Level Pressure  
Sea Level Pressure 30.02 in    
Wind  
Wind Speed 6 mph (ENE)    
Max Wind Speed 14 mph    
Max Gust Speed 22 mph    
Visibility 10 miles    
Events Rain    
T = Trace of Precipitation, MM = Missing Value Source: NWS Daily Summary

Daily Weather History Graph

Daily Weather History Graph

Search for Another Location

Airport or City:

Astronomy

Aug. 24, 2013 Rise Set
Actual Time 6:40 AM CDT 7:39 PM CDT
Civil Twilight 6:15 AM CDT 8:04 PM CDT
Nautical Twilight 5:46 AM CDT 8:33 PM CDT
Astronomical Twilight 5:16 AM CDT 9:03 PM CDT
Moon 9:57 PM CDT (8/24) 10:19 AM CDT (8/24)
Length of Visible Light 13h 48m
Length of Day
12h 59m
Waning Gibbous, 84% of the Moon is Illuminated
Aug 24
Waning Gibbous
Aug 28
Last Quarter
Sep 5
New
Sep 12
First Quarter
Sep 19
Full

Hourly Weather History & Observations

Time (CDT) Temp. Heat Index Dew Point Humidity Pressure Visibility Wind Dir Wind Speed Gust Speed Precip Events Conditions
12:53 AM 75.9 °F - 73.0 °F 91% 30.00 in 10.0 mi Calm Calm - N/A   Clear
1:53 AM 75.9 °F - 73.0 °F 91% 29.98 in 10.0 mi Calm Calm - N/A   Clear
2:53 AM 73.9 °F - 72.0 °F 93% 29.97 in 10.0 mi NE 4.6 mph - N/A   Clear
3:53 AM 73.9 °F - 72.0 °F 93% 29.98 in 10.0 mi NE 3.5 mph - N/A   Clear
4:53 AM 73.0 °F - 71.1 °F 93% 29.97 in 10.0 mi NE 4.6 mph - N/A   Clear
5:53 AM 73.0 °F - 71.1 °F 93% 29.99 in 10.0 mi NE 4.6 mph - N/A   Clear
6:53 AM 73.0 °F - 72.0 °F 96% 30.01 in 10.0 mi NE 5.8 mph - N/A   Clear
7:53 AM 75.9 °F - 73.0 °F 91% 30.02 in 10.0 mi NE 6.9 mph - N/A   Clear
8:53 AM 80.1 °F 84.2 °F 73.0 °F 79% 30.03 in 10.0 mi NE 9.2 mph - N/A   Clear
9:53 AM 82.0 °F 86.7 °F 72.0 °F 71% 30.03 in 10.0 mi NE 8.1 mph - N/A   Partly Cloudy
10:53 AM 84.9 °F 90.7 °F 72.0 °F 65% 30.04 in 10.0 mi ENE 10.4 mph - N/A   Partly Cloudy
11:09 AM 87.8 °F 95.6 °F 73.4 °F 62% 30.04 in 10.0 mi NE 10.4 mph 16.1 mph N/A   Mostly Cloudy
11:40 AM 84.2 °F 89.6 °F 71.6 °F 66% 30.03 in 10.0 mi East 5.8 mph 16.1 mph N/A   Mostly Cloudy
11:53 AM 84.9 °F 90.7 °F 72.0 °F 65% 30.04 in 10.0 mi Variable 6.9 mph - N/A   Mostly Cloudy
12:53 PM 81.0 °F 85.8 °F 73.0 °F 77% 30.03 in 10.0 mi Variable 5.8 mph - 0.01 in Rain Light Rain
1:53 PM 82.9 °F 88.8 °F 73.0 °F 72% 30.03 in 10.0 mi Variable 6.9 mph - 0.00 in   Overcast
2:53 PM 86.0 °F 92.2 °F 72.0 °F 63% 30.01 in 10.0 mi East 8.1 mph 17.3 mph N/A   Mostly Cloudy
3:53 PM 80.1 °F 85.4 °F 75.9 °F 87% 30.01 in 10.0 mi NE 5.8 mph - 0.01 in   Mostly Cloudy
4:53 PM 82.9 °F 89.4 °F 73.9 °F 74% 30.01 in 10.0 mi East 5.8 mph - N/A   Mostly Cloudy
5:01 PM 80.6 °F 85.4 °F 73.4 °F 79% 30.01 in 10.0 mi SE 8.1 mph 16.1 mph N/A   Mostly Cloudy
5:31 PM 78.8 °F - 73.4 °F 83% 30.01 in 10.0 mi Variable 5.8 mph - N/A   Overcast
5:53 PM 81.0 °F 86.2 °F 73.9 °F 79% 30.01 in 10.0 mi Variable 4.6 mph - 0.00 in   Scattered Clouds
6:53 PM 82.0 °F 86.7 °F 72.0 °F 71% 30.01 in 10.0 mi ESE 6.9 mph - N/A   Clear
7:53 PM 79.0 °F - 72.0 °F 79% 30.02 in 10.0 mi Variable 5.8 mph - N/A   Clear
8:53 PM 77.0 °F - 73.0 °F 88% 30.04 in 10.0 mi Variable 3.5 mph - N/A   Clear
9:53 PM 75.9 °F - 72.0 °F 87% 30.06 in 10.0 mi East 5.8 mph - N/A   Clear
10:53 PM 75.9 °F - 72.0 °F 87% 30.08 in 10.0 mi Variable 3.5 mph - N/A   Partly Cloudy
11:53 PM 75.0 °F - 72.0 °F 90% 30.07 in 10.0 mi Variable 3.5 mph - N/A   Clear